Back to catalog

STARLINK-31478

AliveCommunicationsVLEO
NORAD 59188·PAYLOAD·🇺🇸 United States

Launched Mar 10, 2024 from Cape Canaveral Space Force Station

Loading…

Next Passes (next 24 hours)

TLE

FreshSource: CelesTrak SupGP

Epoch: Sep 14, 2026, 14:19 UTC

1 59188C 24045L   26257.59701389  .00021338  00000+0  77277-3 0  2576
2 59188  42.9994 105.6357 0001384 262.3719  69.9840 15.27571589    10

Track STARLINK-31478 in real time with AllMySat

Download on the App Store